Starlink 11697

operational
NORAD ID: 63553 Int'l Des: 2025-075 Owner: SPXS Country: US Constellation: starlink
LEOCIRCULAR

Über Starlink 11697

Beschreibung wird geladen...

Live-Position

3D-Globus wird geladen...

Nächste Überflüge

Höhenverlauf

Altitude vs Time

uPlot chart will show altitude changes over time

Zweizeiliger Elementsatz

1 63553U 25075F 25304.76016041 .00145946 00000-0 11185-2 0 9997
2 63553 42.9999 210.7410 0001751 275.2901 84.7767 15.70892940 32976
Epoch: 31. Okt. 2025 • Age: 10 hours

Aktueller Status

Höhe 357.8 km
Geschwindigkeit 7.70 km/s
Subsatellitenpunkt 31.41°N, 112.3°W
Startdatum 13. Apr. 2025
Alter 0.5 years
Typ internet

Technische Details

Klassifizierung Payload
Masse 960.00 kg
Trockenmasse 910.00 kg
Gesamtmasse 960.00 kg
Länge 0.30 m
Durchmesser 4.10 m
Spannweite 29.00 m
Form Box + pan
Hersteller SPXS
Bus-Typ Starlink V2MD
Phasenstatus In Orbit
Besitzer/Staat SPXS/US

Große Konstellationen

Loading constellations...